カタログに戻る

COSMOS 2361

運用中軍事PO
NORAD 25590·PAYLOAD·🇷🇺 Russia

打ち上げ Dec 24, 1998 から Plesetsk Cosmodrome

Loading…

次のパス (今後24時間)

TLE

最新Source: Space-Track

元期: Sep 14, 2026, 02:52 UTC

1 25590U 98076A   26257.11998993  .00000060  00000-0  48819-4 0  9992
2 25590  82.9354 140.4725 0030496 218.2800 305.8954 13.73243188388902

AllMySatでCOSMOS 2361をリアルタイム追跡

Download on the App Store